Location: Unspecified
(0.0000°N, 0.0000°E)
Time: 19:04:15
(UTC+00:00)

Vanguard 2 Rocket - Pass Details

Date: 19 November 2019
Orbit: 554 x 3326 km, 32.9° (Epoch: 09 December)

Event Time Altitude Azimuth Distance (km) Brightness Sun altitude
Rises 04:55:32 0° 345° (NNW) 3,999 9.9 -11.7°
Reaches altitude 10° 05:00:46 10° 16° (NNE) 3,642 9.9 -10.5°
Maximum altitude 05:03:59 12° 36° (NE) 3,855 10.3 -9.7°
Drops below altitude 10° 05:07:45 10° 55° (NE) 4,414 10.9 -8.8°
Sets 05:16:17 0° 82° (E) 6,230 12.4 -6.8°
